Regional Weather Roundup
Issued by NWS Bismarck, ND

Home |  Current Version |  Previous Version |  Graphics & Text |  Print | Product List |  Glossary On
Versions: 1 2 3 4 5 6 7 8 9 10 11 12 13 14 15 16 17 18 19 20 21 22 23 24 25 26 27 28 29 30 31 32 33 34 35 36 37 38 39 40 41 42 43 44 45 46 47 48 49 50
397
ASUS43 KBIS 220910
RWRBIS

NWR BROADCAST TEXT
NATIONAL WEATHER SERVICE BISMARCK ND
400 AM CDT WED MAY 22 2024

NOTE: "FAIR" INDICATES FEW OR NO CLOUDS BELOW 12,000 FEET WITH NO
SIGNIFICANT WEATHER AND/OR OBSTRUCTIONS TO VISIBILITY.


CITY           SKY/WX    TMP DP  RH WIND       PRES   REMARKS
WILLISTON      CLOUDY    45  35  68 SW6       29.80F
MINOT          CLEAR     43  36  76 W8        29.78S
MINOT AFB      CLEAR     41  35  81 NW8       29.76R
BISMARCK       CLEAR     45  40  82 W6        29.80S
DICKINSON      PTCLDY    38  32  79 W3        29.81F
GARRISON         N/A     37  34  89 NW8       29.80R
HETTINGER ARPT CLEAR     38  33  82 NW3       29.85F
JAMESTOWN      PTCLDY    50  46  86 NW7       29.71F
CARRINGTON     MOCLDY    52  46  82 W14       29.72F
HAZEN          CLEAR     39  37  93 SW6       29.83S
MANDAN         CLEAR     37  37 100 W8        29.80F
OAKES          CLOUDY    43  43 100 W7        29.72S
STANLEY        CLEAR     39  39 100 NW8       29.80S
TIOGA          CLEAR     36  36 100 W3        29.81F
WATFORD CITY   CLOUDY    41  41 100 CALM      29.82F
$$

CITY           SKY/WX    TMP DP  RH WIND       PRES   REMARKS
GRAND FORKS    PTCLDY    50  39  66 W9        29.65S
GRAND FORKS AF PTCLDY    50  38  63 NW9       29.64R
DEVILS LAKE    PTCLDY    47  42  83 NW7       29.72F
FARGO          CLEAR     51  41  68 NW12      29.64R
CANDO          PTCLDY    46  46 100 NW6       29.75S
GRAFTON        PTCLDY    52  43  71 NW14      29.66S
GWINNER        PTCLDY    48  48 100 W10G16    29.70S
LANGDON        CLOUDY    48  48 100 NW10      29.71F
ROLLA          CLOUDY    46  46 100 NW7       29.74F
WALHALLA       PTCLDY    50  50 100 NW9       29.69S
$$

CITY           SKY/WX    TMP DP  RH WIND       PRES   REMARKS
ABERDEEN       PTCLDY    44  40  85 W6        29.73F
MOBRIDGE       CLEAR     47  40  76 N7        29.78S
BUFFALO          N/A     44  39  82 W12       29.85S
RAPID CITY     CLEAR     44  37  76 SW7       29.91S
GLASGOW        PTCLDY    44  41  89 E8        29.78F
SIDNEY         CLOUDY    43  39  86 S5        29.82F
WOLF POINT     CLEAR     40  37  89 CALM      29.80F
GLENDIVE       MOCLDY    45  37  73 S3        29.83F
MILES CITY     PTCLDY    44  41  89 S6        29.82F
BAKER          CLEAR     46  37  71 SW8       29.85F
$$

CITY           SKY/WX    TMP DP  RH WIND       PRES   REMARKS
BILLINGS       CLOUDY    49  36  61 SW15      29.83F
GREAT FALLS    CLOUDY    49  35  58 W14       29.80S
REGINA         CLEAR     32  30  93 NW6       29.80R
ESTEVAN        CLEAR     39  36  87 SW7       29.78F
$$